When you browse on this site, cookies collect data to enhance your experience and personalize the content and advertising you see.
Visit our Privacy Policy to learn more. By continuing to use the site, you agree to this use of cookies and data.
  • In Spain
  • List of Countries
  • For 7 days
  • Water Temperature
  • Weather Map
  • Weather Widgets
  • user-avatar
    Login

    Hourly Weather La Laja

    Today, 29 January, Wednesday

    Time Temperature Precipitation Wind Pressure Humidity
    00:00 +10°C° 0 mm 2 mps 752 mmHg 64%
    01:00 +9°C° 0 mm 2 mps 752 mmHg 68%
    02:00 +9°C° 0 mm 2 mps 752 mmHg 70%
    03:00 +9°C° 0 mm 2 mps 752 mmHg 73%
    04:00 +8°C° 0 mm 2 mps 752 mmHg 75%
    05:00 +10°C° 0 mm 2 mps 753 mmHg 66%
    06:00 +13°C° 0 mm 2 mps 753 mmHg 57%
    07:00 +15°C° 0 mm 2 mps 753 mmHg 48%
    08:00 +18°C° 0 mm 2 mps 753 mmHg 39%
    09:00 +22°C° 0 mm 3 mps 753 mmHg 29%
    10:00 +26°C° 0 mm 3 mps 754 mmHg 19%
    11:00 +27°C° 0 mm 3 mps 753 mmHg 16%
    12:00 +29°C° 0 mm 3 mps 753 mmHg 14%
    13:00 +31°C° 0 mm 3 mps 753 mmHg 11%
    14:00 +31°C° 0 mm 3 mps 753 mmHg 11%
    15:00 +31°C° 0 mm 3 mps 753 mmHg 11%
    16:00 +31°C° 0 mm 3 mps 752 mmHg 11%
    17:00 +28°C° 0 mm 3 mps 753 mmHg 18%
    18:00 +26°C° 0 mm 3 mps 753 mmHg 25%
    19:00 +22°C° 0 mm 3 mps 753 mmHg 32%
    20:00 +19°C° 0 mm 3 mps 753 mmHg 38%
    21:00 +17°C° 0 mm 2 mps 753 mmHg 44%
    22:00 +15°C° 0 mm 2 mps 753 mmHg 50%
    23:00 +14°C° 0 mm 2 mps 753 mmHg 54%

    Tomorrow, 30 January, Thursday

    Time Temperature Precipitation Wind Pressure Humidity
    00:00 +13°C° 0 mm 2 mps 753 mmHg 58%
    01:00 +12°C° 0 mm 2 mps 753 mmHg 61%
    02:00 +10°C° 0 mm 2 mps 753 mmHg 64%
    03:00 +10°C° 0 mm 2 mps 753 mmHg 66%
    04:00 +9°C° 0 mm 2 mps 752 mmHg 69%
    05:00 +12°C° 0 mm 2 mps 752 mmHg 60%
    06:00 +14°C° 0 mm 2 mps 753 mmHg 52%
    07:00 +16°C° 0 mm 2 mps 753 mmHg 43%
    08:00 +20°C° 0 mm 2 mps 753 mmHg 34%
    09:00 +25°C° 0 mm 2 mps 753 mmHg 24%
    10:00 +30°C° 0 mm 2 mps 753 mmHg 15%
    11:00 +32°C° 0 mm 2 mps 752 mmHg 13%
    12:00 +35°C° 0 mm 2 mps 752 mmHg 10%
    13:00 +37°C° 0 mm 2 mps 751 mmHg 8%
    14:00 +36°C° 0 mm 3 mps 751 mmHg 9%
    15:00 +36°C° 0 mm 3 mps 751 mmHg 10%
    16:00 +36°C° 0 mm 3 mps 751 mmHg 10%
    17:00 +33°C° 0 mm 3 mps 751 mmHg 16%
    18:00 +29°C° 0 mm 3 mps 751 mmHg 22%
    19:00 +26°C° 0 mm 3 mps 752 mmHg 28%
    20:00 +24°C° 0 mm 3 mps 752 mmHg 36%
    21:00 +21°C° 0 mm 3 mps 752 mmHg 44%
    22:00 +19°C° 0 mm 3 mps 752 mmHg 52%
    23:00 +18°C° 0 mm 3 mps 752 mmHg 58%

    Day after tomorrow, 31 January, Friday

    Time Temperature Precipitation Wind Pressure Humidity
    00:00 +17°C° 0 mm 2 mps 752 mmHg 65%
    01:00 +16°C° 0 mm 2 mps 751 mmHg 71%
    02:00 +15°C° 0 mm 2 mps 751 mmHg 75%
    03:00 +15°C° 0 mm 2 mps 751 mmHg 79%
    04:00 +14°C° 0 mm 1 mps 751 mmHg 83%
    05:00 +16°C° 0 mm 1 mps 751 mmHg 76%
    06:00 +19°C° 0 mm 1 mps 751 mmHg 68%
    07:00 +21°C° 0 mm 1 mps 752 mmHg 61%
    08:00 +24°C° 0 mm 2 mps 751 mmHg 51%
    09:00 +28°C° 0 mm 2 mps 751 mmHg 41%
    10:00 +33°C° 0 mm 3 mps 751 mmHg 30%
    11:00 +34°C° 0 mm 3 mps 751 mmHg 27%
    12:00 +36°C° 0 mm 3 mps 751 mmHg 23%
    13:00 +37°C° 0 mm 3 mps 751 mmHg 19%
    14:00 +37°C° 0 mm 3 mps 750 mmHg 20%
    15:00 +37°C° 0 mm 3 mps 750 mmHg 21%
    16:00 +36°C° 0 mm 3 mps 750 mmHg 22%
    17:00 +33°C° 0 mm 3 mps 750 mmHg 28%
    18:00 +29°C° 0 mm 2 mps 750 mmHg 35%
    19:00 +26°C° 0 mm 2 mps 751 mmHg 42%
    20:00 +24°C° 0 mm 2 mps 751 mmHg 50%
    21:00 +22°C° 0 mm 1 mps 751 mmHg 59%
    22:00 +19°C° 0 mm 1 mps 751 mmHg 67%
    23:00 +18°C° 0 mm 1 mps 751 mmHg 73%

    1 February, Saturday

    Time Temperature Precipitation Wind Pressure Humidity
    00:00 +16°C° 0 mm 1 mps 751 mmHg 78%
    01:00 +15°C° 0 mm 1 mps 751 mmHg 83%
    02:00 +13°C° 0 mm 0 mps 751 mmHg 86%
    03:00 +13°C° 0 mm 0 mps 751 mmHg 88%
    04:00 +12°C° 0 mm 0 mps 750 mmHg 91%
    05:00 +14°C° 0 mm 0 mps 751 mmHg 82%
    06:00 +16°C° 0 mm 0 mps 751 mmHg 74%
    07:00 +18°C° 0 mm 0 mps 751 mmHg 66%
    08:00 +23°C° 0 mm 1 mps 751 mmHg 55%
    09:00 +26°C° 0 mm 2 mps 751 mmHg 45%
    10:00 +29°C° 0 mm 3 mps 751 mmHg 35%
    11:00 +29°C° 0 mm 4 mps 751 mmHg 36%
    12:00 +29°C° 0 mm 4 mps 751 mmHg 37%
    13:00 +30°C° 0 mm 5 mps 751 mmHg 38%
    14:00 +29°C° 0 mm 5 mps 751 mmHg 44%
    15:00 +28°C° 0 mm 5 mps 751 mmHg 50%
    16:00 +26°C° 0 mm 5 mps 751 mmHg 55%
    17:00 +23°C° 0 mm 4 mps 752 mmHg 65%
    18:00 +21°C° 0 mm 3 mps 752 mmHg 75%
    19:00 +20°C° 0 mm 1 mps 752 mmHg 85%
    20:00 +19°C° 0 mm 1 mps 752 mmHg 87%
    21:00 +16°C° 0 mm 1 mps 752 mmHg 88%
    22:00 +15°C° 0 mm 1 mps 752 mmHg 89%
    23:00 +14°C° 0 mm 1 mps 752 mmHg 91%

    2 February, Sunday

    Time Temperature Precipitation Wind Pressure Humidity
    00:00 +13°C° 0 mm 1 mps 752 mmHg 93%
    01:00 +12°C° 0 mm 1 mps 751 mmHg 95%
    02:00 +12°C° 0 mm 1 mps 751 mmHg 95%
    03:00 +11°C° 0 mm 1 mps 751 mmHg 95%
    04:00 +11°C° 0 mm 1 mps 750 mmHg 96%
    05:00 +12°C° 0 mm 0 mps 751 mmHg 89%
    06:00 +13°C° 0 mm 0 mps 751 mmHg 82%
    07:00 +15°C° 0 mm 0 mps 751 mmHg 74%
    08:00 +20°C° 0 mm 1 mps 751 mmHg 59%
    09:00 +24°C° 0 mm 1 mps 751 mmHg 44%
    10:00 +27°C° 0 mm 1 mps 750 mmHg 28%
    11:00 +28°C° 0 mm 3 mps 750 mmHg 24%
    12:00 +29°C° 0 mm 4 mps 750 mmHg 20%
    13:00 +30°C° 0 mm 5 mps 750 mmHg 16%
    14:00 +28°C° 0 mm 5 mps 750 mmHg 19%
    15:00 +27°C° 0 mm 5 mps 750 mmHg 22%
    16:00 +26°C° 0 mm 5 mps 750 mmHg 25%
    17:00 +22°C° 0 mm 4 mps 751 mmHg 36%
    18:00 +19°C° 0 mm 3 mps 751 mmHg 47%
    19:00 +16°C° 0 mm 3 mps 752 mmHg 57%
    20:00 +14°C° 0 mm 2 mps 752 mmHg 69%
    21:00 +12°C° 0 mm 2 mps 752 mmHg 81%
    22:00 +11°C° 0 mm 1 mps 753 mmHg 93%
    23:00 +10°C° 0 mm 1 mps 752 mmHg 94%

    3 February, Monday

    Time Temperature Precipitation Wind Pressure Humidity
    00:00 +10°C° 0 mm 1 mps 752 mmHg 95%
    01:00 +9°C° 0 mm 1 mps 752 mmHg 96%
    02:00 +9°C° 0 mm 1 mps 751 mmHg 97%
    03:00 +8°C° 0 mm 0 mps 751 mmHg 97%
    04:00 +8°C° 0 mm 0 mps 751 mmHg 97%
    05:00 +10°C° 0 mm 1 mps 751 mmHg 91%
    06:00 +12°C° 0 mm 1 mps 751 mmHg 86%
    07:00 +14°C° 0 mm 1 mps 751 mmHg 81%
    08:00 +16°C° 0 mm 2 mps 751 mmHg 68%
    09:00 +19°C° 0 mm 3 mps 750 mmHg 56%
    10:00 +22°C° 0 mm 4 mps 750 mmHg 43%
    11:00 +23°C° 0 mm 4 mps 750 mmHg 42%
    12:00 +23°C° 0 mm 5 mps 750 mmHg 40%
    13:00 +24°C° 0 mm 6 mps 750 mmHg 38%
    14:00 +22°C° 0 mm 6 mps 750 mmHg 46%
    15:00 +21°C° 0 mm 6 mps 751 mmHg 54%
    16:00 +19°C° 0 mm 5 mps 751 mmHg 61%
    17:00 +15°C° 1 mm 4 mps 752 mmHg 72%
    18:00 +13°C° 1 mm 3 mps 752 mmHg 82%
    19:00 +11°C° 1 mm 1 mps 753 mmHg 93%
    20:00 +11°C° 0.7 mm 1 mps 754 mmHg 94%
    21:00 +11°C° 0.7 mm 1 mps 755 mmHg 96%
    22:00 +10°C° 0.7 mm 1 mps 756 mmHg 97%
    23:00 +10°C° 0 mm 1 mps 756 mmHg 98%
    Show more